RYR435 EHAM-EDDH

Flight info

Callsign RYR435
Flight time N/A
Altitude 33000
Route ANDIK M105 RIBSO RIBSO7A
Aircraft A320/M-SDE3FGHIRWY/LB1

Departure

Time 2026-04-30 19:04
Airport Amsterdam Airport Schiphol (EHAM)

Arrival

Time N/A
Airport Hamburg Helmut Schmidt Airport (EDDH)
Time Latitude Longitude Altitude Speed Heading
2026-04-30 18:45 52.31298 4.75788 6 ft 0 kts 266°
2026-04-30 18:54 52.31299 4.75804 6 ft 2 kts 266°
2026-04-30 18:54 52.31300 4.75828 6 ft 2 kts 265°
2026-04-30 18:55 52.31301 4.75851 7 ft 2 kts 266°
2026-04-30 18:55 52.31304 4.75897 8 ft 2 kts 288°
2026-04-30 18:55 52.31296 4.75916 7 ft 2 kts 351°
2026-04-30 18:56 52.31294 4.75917 7 ft 0 kts 356°
2026-04-30 18:56 52.31319 4.75921 7 ft 9 kts
2026-04-30 18:56 52.31414 4.75930 10 ft 17 kts
2026-04-30 18:57 52.31521 4.75681 11 ft 26 kts 265°
2026-04-30 18:57 52.31511 4.75356 10 ft 32 kts 266°
2026-04-30 18:57 52.31497 4.74978 13 ft 24 kts 266°
2026-04-30 18:58 52.31490 4.74768 14 ft 12 kts 268°
2026-04-30 18:58 52.31491 4.74751 14 ft 1 kts 271°
2026-04-30 19:00 52.31491 4.74747 14 ft 1 kts 271°
2026-04-30 19:00 52.31493 4.74714 16 ft 6 kts 284°
2026-04-30 19:00 52.31583 4.74659 18 ft 0 kts 358°
2026-04-30 19:01 52.31606 4.74659 19 ft 7 kts
2026-04-30 19:01 52.31666 4.74729 19 ft 15 kts 71°
2026-04-30 19:02 52.31669 4.74773 19 ft 0 kts 85°
2026-04-30 19:02 52.31670 4.74774 19 ft 0 kts 85°
2026-04-30 19:04 52.31705 4.75826 18 ft 107 kts 87°
2026-04-30 19:04 52.31795 4.78978 687 ft 143 kts 88°
2026-04-30 19:05 52.31973 4.82378 1679 ft 169 kts 89°
2026-04-30 19:05 52.32213 4.86754 2484 ft 218 kts 89°
2026-04-30 19:06 52.33149 4.91819 3802 ft 256 kts 61°
2026-04-30 19:06 52.34195 4.94224 4672 ft 262 kts 59°
2026-04-30 19:06 52.36348 4.99051 6489 ft 266 kts 59°
2026-04-30 19:07 52.38538 5.04014 8179 ft 272 kts 59°
2026-04-30 19:07 52.39652 5.06554 8979 ft 276 kts 59°
2026-04-30 19:08 52.42039 5.11612 10518 ft 289 kts 47°
2026-04-30 19:08 52.45809 5.14728 11333 ft 333 kts 19°
2026-04-30 19:08 52.48120 5.15756 11464 ft 355 kts 21°
2026-04-30 19:09 52.52093 5.20652 11715 ft 378 kts 62°
2026-04-30 19:09 52.53362 5.24478 12119 ft 385 kts 65°
2026-04-30 19:09 52.54615 5.28390 12717 ft 390 kts 65°
2026-04-30 19:10 52.57161 5.36341 13970 ft 397 kts 65°
2026-04-30 19:10 52.59761 5.44438 15085 ft 404 kts 65°
2026-04-30 19:11 52.61076 5.48541 15611 ft 407 kts 65°
2026-04-30 19:11 52.63733 5.56840 16662 ft 412 kts 65°
2026-04-30 19:11 52.65067 5.61016 17179 ft 414 kts 65°
2026-04-30 19:12 52.66397 5.65184 17671 ft 417 kts 65°
2026-04-30 19:12 52.67747 5.69428 18155 ft 420 kts 65°
2026-04-30 19:12 52.69101 5.73700 18634 ft 423 kts 65°
2026-04-30 19:13 52.71843 5.82366 19456 ft 428 kts 65°
2026-04-30 19:13 52.74609 5.91141 20260 ft 434 kts 65°
2026-04-30 19:13 52.76006 5.95577 20650 ft 437 kts 65°
2026-04-30 19:14 52.77408 6.00037 21009 ft 439 kts 65°
2026-04-30 19:14 52.78816 6.04531 21352 ft 442 kts 65°
2026-04-30 19:14 52.80229 6.09053 21703 ft 444 kts 64°
2026-04-30 19:14 52.81646 6.13589 22022 ft 446 kts 64°
2026-04-30 19:15 52.83075 6.18164 22327 ft 448 kts 64°
2026-04-30 19:15 52.85944 6.27376 22910 ft 453 kts 64°
2026-04-30 19:15 52.87385 6.32022 23194 ft 455 kts 64°
2026-04-30 19:16 52.88808 6.36628 23475 ft 457 kts 64°
2026-04-30 19:16 52.90253 6.41316 23831 ft 458 kts 64°
2026-04-30 19:16 52.93138 6.50703 24589 ft 456 kts 64°
2026-04-30 19:17 52.94574 6.55387 24961 ft 455 kts 64°
2026-04-30 19:17 52.97422 6.64721 25781 ft 452 kts 64°
2026-04-30 19:17 52.98838 6.69358 26224 ft 450 kts 64°
2026-04-30 19:18 53.01188 6.77048 26936 ft 448 kts 63°
2026-04-30 19:18 53.03049 6.83160 27477 ft 447 kts 64°
2026-04-30 19:18 53.04444 6.87768 27936 ft 446 kts 64°
2026-04-30 19:19 53.05831 6.92376 28371 ft 445 kts 64°
2026-04-30 19:19 53.07214 6.96977 28838 ft 444 kts 64°
2026-04-30 19:19 53.09974 7.06142 29745 ft 442 kts 63°
2026-04-30 19:20 53.11346 7.10713 30198 ft 441 kts 63°
2026-04-30 19:20 53.12712 7.15275 30660 ft 440 kts 63°
2026-04-30 19:20 53.14861 7.24808 31396 ft 440 kts 71°
2026-04-30 19:21 53.15791 7.29589 31780 ft 440 kts 71°
2026-04-30 19:21 53.17680 7.39253 32578 ft 438 kts 71°
2026-04-30 19:22 53.19560 7.48902 33386 ft 437 kts 71°
2026-04-30 19:22 53.22411 7.63680 32527 ft 453 kts 71°
2026-04-30 19:23 53.25320 7.78781 31164 ft 457 kts 71°
2026-04-30 19:24 53.27208 7.88688 30255 ft 443 kts 71°
2026-04-30 19:24 53.28129 7.93548 29743 ft 435 kts 71°
2026-04-30 19:24 53.29954 8.03219 28755 ft 440 kts 71°
2026-04-30 19:25 53.34286 8.16481 27324 ft 431 kts 55°
2026-04-30 19:26 53.37623 8.24646 26409 ft 417 kts 55°
2026-04-30 19:26 53.40844 8.32528 25529 ft 403 kts 55°
2026-04-30 19:26 53.42391 8.36321 25094 ft 397 kts 55°
2026-04-30 19:27 53.45456 8.43881 24259 ft 388 kts 55°
2026-04-30 19:27 53.48457 8.51311 23321 ft 382 kts 56°
2026-04-30 19:28 53.49939 8.54991 22834 ft 379 kts 56°
2026-04-30 19:28 53.52877 8.62284 21889 ft 374 kts 56°
2026-04-30 19:29 53.55767 8.69487 20986 ft 369 kts 56°
2026-04-30 19:29 53.57191 8.73052 20541 ft 366 kts 57°
2026-04-30 19:30 53.61366 8.83523 19242 ft 355 kts 57°
2026-04-30 19:30 53.64083 8.90355 18473 ft 344 kts 57°
2026-04-30 19:31 53.66629 8.96762 18428 ft 314 kts 57°
2026-04-30 19:31 53.67829 8.99782 18434 ft 309 kts 57°
2026-04-30 19:31 53.70224 9.05840 17795 ft 311 kts 57°
2026-04-30 19:32 53.71410 9.08848 17527 ft 305 kts 57°
2026-04-30 19:32 53.72575 9.11813 17193 ft 302 kts 57°
2026-04-30 19:32 53.73731 9.14754 16832 ft 300 kts 57°
2026-04-30 19:32 53.74865 9.17639 16475 ft 298 kts 58°
2026-04-30 19:33 53.76019 9.20588 16112 ft 296 kts 58°
2026-04-30 19:33 53.77137 9.23449 15803 ft 293 kts 58°
2026-04-30 19:33 53.78244 9.26277 15683 ft 284 kts 58°
2026-04-30 19:33 53.79318 9.29013 15560 ft 275 kts 58°
2026-04-30 19:34 53.80361 9.31676 15439 ft 269 kts 58°
2026-04-30 19:34 53.81386 9.34298 15435 ft 268 kts 58°
2026-04-30 19:34 53.82790 9.39991 15437 ft 265 kts 90°
2026-04-30 19:35 53.82397 9.43031 15436 ft 268 kts 115°
2026-04-30 19:35 53.81206 9.45483 15445 ft 278 kts 141°
2026-04-30 19:35 53.79403 9.46728 15438 ft 289 kts 170°
2026-04-30 19:35 53.77422 9.46303 15440 ft 299 kts 201°
2026-04-30 19:36 53.75549 9.44596 15439 ft 303 kts 207°
2026-04-30 19:36 53.73755 9.42804 15438 ft 304 kts 208°
2026-04-30 19:36 53.70171 9.39044 15429 ft 304 kts 219°
2026-04-30 19:37 53.68954 9.36158 15431 ft 307 kts 251°
2026-04-30 19:37 53.68733 9.32620 15438 ft 305 kts 282°
2026-04-30 19:37 53.69561 9.29403 15438 ft 299 kts 313°
2026-04-30 19:37 53.71161 9.27310 15437 ft 289 kts 342°
2026-04-30 19:38 53.73091 9.26743 15439 ft 279 kts 10°
2026-04-30 19:38 53.74905 9.27681 15437 ft 272 kts 32°
2026-04-30 19:38 53.76555 9.29250 15439 ft 272 kts 33°
2026-04-30 19:38 53.78166 9.30851 15434 ft 272 kts 34°
2026-04-30 19:39 53.79795 9.32490 15439 ft 272 kts 34°
2026-04-30 19:39 53.81421 9.34138 15439 ft 272 kts 37°
2026-04-30 19:39 53.82733 9.36351 15430 ft 266 kts 60°
2026-04-30 19:39 53.83371 9.39226 15167 ft 261 kts 84°
2026-04-30 19:40 53.83226 9.42262 14844 ft 262 kts 107°
2026-04-30 19:40 53.82345 9.44961 14545 ft 265 kts 129°
2026-04-30 19:40 53.80848 9.46809 14425 ft 273 kts 154°
2026-04-30 19:40 53.78954 9.47426 14432 ft 286 kts 179°
2026-04-30 19:41 53.77019 9.46523 14438 ft 295 kts 205°
2026-04-30 19:41 53.75226 9.44799 14439 ft 298 kts 207°
2026-04-30 19:41 53.73464 9.43051 14440 ft 298 kts 207°
2026-04-30 19:41 53.71680 9.41269 14439 ft 298 kts 207°
2026-04-30 19:42 53.69925 9.39406 14427 ft 299 kts 217°
2026-04-30 19:42 53.68674 9.36626 14431 ft 302 kts 247°
2026-04-30 19:42 53.68330 9.33177 14187 ft 299 kts 278°
2026-04-30 19:42 53.68992 9.29923 13832 ft 293 kts 307°
2026-04-30 19:43 53.70424 9.27599 13493 ft 282 kts 336°
2026-04-30 19:43 53.72238 9.26641 13428 ft 273 kts
2026-04-30 19:43 53.74067 9.27037 13433 ft 267 kts 25°
2026-04-30 19:44 53.77322 9.29984 13436 ft 266 kts 34°
2026-04-30 19:44 53.78910 9.31575 13437 ft 266 kts 34°
2026-04-30 19:44 53.80497 9.33174 13437 ft 266 kts 34°
2026-04-30 19:44 53.82023 9.34913 13429 ft 262 kts 47°
2026-04-30 19:45 53.83018 9.37433 13435 ft 257 kts 72°
2026-04-30 19:45 53.83276 9.40395 13436 ft 257 kts 95°
2026-04-30 19:45 53.82757 9.43278 13437 ft 260 kts 118°
2026-04-30 19:45 53.81536 9.45545 13441 ft 267 kts 142°
2026-04-30 19:46 53.79794 9.46715 13432 ft 277 kts 169°
2026-04-30 19:46 53.77882 9.46400 13431 ft 286 kts 197°
2026-04-30 19:46 53.76098 9.44862 13143 ft 289 kts 207°
2026-04-30 19:46 53.74366 9.43154 12811 ft 288 kts 207°
2026-04-30 19:47 53.72646 9.41427 12529 ft 286 kts 208°
2026-04-30 19:47 53.71523 9.40297 12430 ft 284 kts 207°
2026-04-30 19:47 53.69496 9.37476 12426 ft 289 kts 236°
2026-04-30 19:47 53.68825 9.34290 12439 ft 291 kts 266°
2026-04-30 19:48 53.69130 9.30960 12432 ft 289 kts 297°
2026-04-30 19:48 53.70292 9.28337 12440 ft 282 kts 326°
2026-04-30 19:48 53.72019 9.26931 12436 ft 274 kts 354°
2026-04-30 19:48 53.73876 9.27000 12439 ft 265 kts 20°
2026-04-30 19:49 53.75536 9.28273 12435 ft 262 kts 32°
2026-04-30 19:49 53.78685 9.31365 12436 ft 262 kts 34°
2026-04-30 19:49 53.80252 9.32941 12432 ft 262 kts 34°